Regional Weather Roundup
Issued by NWS

Home | Current Version | Previous Version | Graphics & Text | Print | Product List | Glossary On
Versions: 1 2 3 4 5 6 7 8 9 10 11 12 13 14 15 16 17 18 19 20 21 22 23 24 25 26 27 28
000
ASUS45 KSLC 162210
RWRUT

UTAH REGIONAL WEATHER ROUNDUP
NATIONAL WEATHER SERVICE SALT LAKE CITY UT
400 PM MDT WED APR 16 2014

UTZ001>011-023>025-162300-

NORTHERN UTAH

CITY           SKY/WX    TMP DP  RH WIND       PRES   REMARKS
HILL AFB       SUNNY     54  16  22 VRB2      29.99F
LOGAN          SUNNY     55  17  22 NW6       29.98F
OGDEN          SUNNY     54  17  23 VRB3      29.99S
PROVO AIRPORT  MOSUNNY   55  21  26 SW7       29.98F
SALT LAKE CITY PTSUNNY   56   4  12 NW13G20   30.00S
VERNAL         MOSUNNY   55  14  19 CALM      29.93F
WENDOVER       SUNNY     59  16  18 SE8       29.98S
HEBER CITY     SUNNY     57  14  18 SW7       29.95S
WEST JORDAN    SUNNY     54  21  28 N17       30.00S

$$

UTZ012>022-026-027-162300-

SOUTHERN UTAH

CITY           SKY/WX    TMP DP  RH WIND       PRES   REMARKS
BRYCE CANYON   MOSUNNY   52  26  36 W16G26    30.00F
CEDAR CITY     MOSUNNY   62  23  22 N7        29.95F
MILFORD        SUNNY     61  20  20 NE12G22   29.95F
MOAB/CYNLANDS  SUNNY     61  13  15 W13       29.88F
PRICE          MOSUNNY   57  15  19 W8G18     29.93F
ST GEORGE      CLEAR     79  27  14 NW17      29.82F

$$

REGIONAL REPORTS     COLORADO/ARIZONA

CITY           SKY/WX    TMP DP  RH WIND       PRES   REMARKS
CRAIG, CO      PTSUNNY   50  13  22 SW14      29.95F
GRAND JUNCTION CLOUDY    57  11  16 NW9       29.89F
RIFLE          MOSUNNY   56   9  15 W5        29.88F
MONTROSE       CLOUDY    56  13  18 N10       29.92F
CORTEZ         PTSUNNY   59  21  23 SW14G23   29.90S
PAGE, AZ       PTSUNNY   70  24  17 E9        29.87F
GRAND CANYON   MOSUNNY   64  11  12 NW10G21   29.95F
KINGMAN        SUNNY     84  12   6 W15G30    29.81F
FLAGSTAFF      PTSUNNY   64   7  10 W17G23    29.96F

$$

REGIONAL REPORTS    NEVADA/IDAHO/WYOMING

CITY           SKY/WX    TMP DP  RH WIND       PRES   REMARKS
LAS VEGAS, NV  MOSUNNY   85  16   7 VRB5      29.72F
ELY            PTSUNNY   55  25  31 NW7       29.99F
ELKO           PTSUNNY   57  26  30 W14       29.98F
POCATELLO, ID  MOSUNNY   54  12  18 SW9G21    29.99F
BURLEY         SUNNY     56  15  20 W12G21    29.98F
EVANSTON, WY   MOSUNNY   48   6  18 W9G23     29.98F
ROCK SPRINGS   SUNNY     50   3  14 W17       29.95F

$$



USA.gov is the U.S. government's official web portal to all federal, state and local government web resources and services.